Torna al catalogo

STARLINK-32451

AttivoComunicazioniVLEO
NORAD 61857·PAYLOAD·🇺🇸 United States

Lanciato Nov 7, 2024 da Cape Canaveral Space Force Station

Loading…

Prossimi Passaggi (prossime 24 ore)

TLE

AggiornatoSource: CelesTrak SupGP

Epoca: Sep 15, 2026, 02:39 UTC

1 61857C 24202N   26258.11090278 -.00023462  00000+0 -84993-3 0  2580
2 61857  43.0017 248.2195 0001219 264.6803 229.7511 15.27584776    17

Traccia STARLINK-32451 in tempo reale con AllMySat

Download on the App Store